When you browse on this site, cookies collect data to enhance your experience and personalize the content and advertising you see.
Visit our Privacy Policy to learn more. By continuing to use the site, you agree to this use of cookies and data.
  • In Hungary
  • List of Countries
  • For 7 days
  • Water Temperature
  • Weather Map
  • News
  • Weather Widgets
  • user-avatar
    Login

    Hourly Weather Suchorowiec

    Today, 6 April, Monday

    Time Temperature Precipitation Wind Pressure Humidity
    00:00 +4°C° 0 mm 2 mps 763 mmHg 61%
    01:00 +3°C° 0 mm 2 mps 764 mmHg 62%
    02:00 +3°C° 0 mm 2 mps 763 mmHg 63%
    03:00 +3°C° 0 mm 2 mps 763 mmHg 63%
    04:00 +2°C° 0 mm 2 mps 763 mmHg 63%
    05:00 +2°C° 0 mm 3 mps 763 mmHg 61%
    06:00 +3°C° 0 mm 3 mps 763 mmHg 58%
    07:00 +4°C° 0 mm 4 mps 763 mmHg 56%
    08:00 +6°C° 0 mm 4 mps 763 mmHg 51%
    09:00 +8°C° 0 mm 4 mps 763 mmHg 47%
    10:00 +10°C° 0 mm 5 mps 764 mmHg 42%
    11:00 +12°C° 0 mm 5 mps 763 mmHg 40%
    12:00 +13°C° 0 mm 5 mps 763 mmHg 39%
    13:00 +14°C° 0 mm 5 mps 762 mmHg 38%
    14:00 +14°C° 0 mm 5 mps 762 mmHg 40%
    15:00 +14°C° 0 mm 5 mps 762 mmHg 41%
    16:00 +14°C° 0 mm 4 mps 762 mmHg 43%
    17:00 +12°C° 0 mm 4 mps 761 mmHg 50%
    18:00 +11°C° 0 mm 4 mps 761 mmHg 56%
    19:00 +8°C° 0 mm 4 mps 761 mmHg 62%
    20:00 +7°C° 0 mm 4 mps 761 mmHg 63%
    21:00 +7°C° 0 mm 4 mps 761 mmHg 63%
    22:00 +6°C° 0 mm 4 mps 761 mmHg 64%
    23:00 +7°C° 0 mm 3 mps 761 mmHg 66%

    Tomorrow, 7 April, Tuesday

    Time Temperature Precipitation Wind Pressure Humidity
    00:00 +5°C° 0 mm 3 mps 761 mmHg 69%
    01:00 +4°C° 0 mm 3 mps 761 mmHg 71%
    02:00 +4°C° 0 mm 3 mps 761 mmHg 74%
    03:00 +4°C° 0 mm 3 mps 761 mmHg 76%
    04:00 +4°C° 0 mm 3 mps 761 mmHg 78%
    05:00 +5°C° 0 mm 3 mps 761 mmHg 74%
    06:00 +6°C° 0 mm 4 mps 761 mmHg 69%
    07:00 +7°C° 0 mm 4 mps 761 mmHg 65%
    08:00 +10°C° 0 mm 4 mps 761 mmHg 59%
    09:00 +12°C° 0 mm 5 mps 761 mmHg 53%
    10:00 +14°C° 0 mm 5 mps 761 mmHg 48%
    11:00 +15°C° 0 mm 5 mps 761 mmHg 46%
    12:00 +16°C° 0 mm 5 mps 761 mmHg 45%
    13:00 +17°C° 0 mm 5 mps 760 mmHg 43%
    14:00 +17°C° 0 mm 5 mps 760 mmHg 45%
    15:00 +18°C° 0 mm 4 mps 760 mmHg 47%
    16:00 +18°C° 0 mm 4 mps 760 mmHg 48%
    17:00 +16°C° 0 mm 3 mps 760 mmHg 56%
    18:00 +13°C° 0 mm 3 mps 760 mmHg 64%
    19:00 +12°C° 0 mm 2 mps 760 mmHg 72%
    20:00 +10°C° 0 mm 2 mps 761 mmHg 77%
    21:00 +9°C° 0 mm 2 mps 761 mmHg 82%
    22:00 +8°C° 0 mm 2 mps 761 mmHg 87%
    23:00 +7°C° 0 mm 2 mps 761 mmHg 87%

    Day after tomorrow, 8 April, Wednesday

    Time Temperature Precipitation Wind Pressure Humidity
    00:00 +6°C° 0 mm 2 mps 761 mmHg 86%
    01:00 +7°C° 0 mm 1 mps 761 mmHg 85%
    02:00 +6°C° 0 mm 1 mps 761 mmHg 86%
    03:00 +6°C° 0 mm 1 mps 761 mmHg 87%
    04:00 +6°C° 0 mm 1 mps 761 mmHg 87%
    05:00 +7°C° 0 mm 1 mps 761 mmHg 82%
    06:00 +8°C° 0 mm 1 mps 761 mmHg 76%
    07:00 +9°C° 0 mm 1 mps 761 mmHg 70%
    08:00 +11°C° 0 mm 1 mps 761 mmHg 63%
    09:00 +13°C° 0 mm 1 mps 761 mmHg 56%
    10:00 +15°C° 0 mm 1 mps 760 mmHg 49%
    11:00 +16°C° 0 mm 1 mps 760 mmHg 48%
    12:00 +18°C° 0 mm 1 mps 760 mmHg 47%
    13:00 +19°C° 0 mm 1 mps 759 mmHg 46%
    14:00 +18°C° 0 mm 2 mps 759 mmHg 48%
    15:00 +18°C° 0 mm 2 mps 758 mmHg 49%
    16:00 +18°C° 0 mm 2 mps 758 mmHg 50%
    17:00 +17°C° 0 mm 2 mps 757 mmHg 56%
    18:00 +16°C° 0 mm 1 mps 757 mmHg 61%
    19:00 +14°C° 0 mm 1 mps 756 mmHg 67%
    20:00 +13°C° 0 mm 1 mps 756 mmHg 69%
    21:00 +13°C° 0 mm 1 mps 756 mmHg 72%
    22:00 +12°C° 0 mm 2 mps 756 mmHg 74%
    23:00 +10°C° 0 mm 2 mps 755 mmHg 74%

    9 April, Thursday

    Time Temperature Precipitation Wind Pressure Humidity
    00:00 +10°C° 0 mm 2 mps 755 mmHg 73%
    01:00 +9°C° 0 mm 2 mps 755 mmHg 73%
    02:00 +9°C° 0 mm 2 mps 754 mmHg 70%
    03:00 +8°C° 0 mm 2 mps 754 mmHg 67%
    04:00 +7°C° 0 mm 2 mps 754 mmHg 64%
    05:00 +8°C° 0 mm 3 mps 753 mmHg 61%
    06:00 +9°C° 0 mm 3 mps 753 mmHg 59%
    07:00 +10°C° 0 mm 3 mps 752 mmHg 56%
    08:00 +12°C° 0 mm 4 mps 752 mmHg 52%
    09:00 +14°C° 0 mm 4 mps 752 mmHg 48%
    10:00 +16°C° 0 mm 5 mps 751 mmHg 44%
    11:00 +16°C° 0 mm 5 mps 751 mmHg 43%
    12:00 +17°C° 0 mm 5 mps 750 mmHg 41%
    13:00 +19°C° 0 mm 6 mps 750 mmHg 39%
    14:00 +17°C° 0 mm 6 mps 750 mmHg 42%
    15:00 +17°C° 0 mm 6 mps 749 mmHg 44%
    16:00 +17°C° 0 mm 5 mps 749 mmHg 47%
    17:00 +14°C° 0.2 mm 4 mps 749 mmHg 58%
    18:00 +12°C° 0.2 mm 3 mps 749 mmHg 70%
    19:00 +10°C° 0.2 mm 2 mps 750 mmHg 82%
    20:00 +9°C° 0 mm 3 mps 750 mmHg 80%
    21:00 +7°C° 0 mm 4 mps 750 mmHg 78%
    22:00 +7°C° 0 mm 4 mps 750 mmHg 76%
    23:00 +5°C° 0 mm 4 mps 751 mmHg 76%

    10 April, Friday

    Time Temperature Precipitation Wind Pressure Humidity
    00:00 +4°C° 0 mm 4 mps 751 mmHg 75%
    01:00 +3°C° 0 mm 4 mps 751 mmHg 74%
    02:00 +3°C° 0 mm 4 mps 752 mmHg 80%
    03:00 +3°C° 0 mm 4 mps 752 mmHg 85%
    04:00 +3°C° 0 mm 4 mps 752 mmHg 90%
    05:00 +3°C° 0 mm 4 mps 753 mmHg 86%
    06:00 +3°C° 0 mm 4 mps 754 mmHg 81%
    07:00 +4°C° 0 mm 4 mps 754 mmHg 76%
    08:00 +5°C° 0 mm 4 mps 755 mmHg 66%
    09:00 +7°C° 0 mm 3 mps 755 mmHg 55%
    10:00 +9°C° 0 mm 3 mps 755 mmHg 44%
    11:00 +10°C° 0 mm 3 mps 755 mmHg 41%
    12:00 +11°C° 0 mm 3 mps 755 mmHg 37%
    13:00 +12°C° 0 mm 4 mps 755 mmHg 33%
    14:00 +12°C° 0 mm 4 mps 755 mmHg 37%
    15:00 +11°C° 0 mm 4 mps 755 mmHg 41%
    16:00 +10°C° 0 mm 5 mps 754 mmHg 45%
    17:00 +8°C° 0 mm 4 mps 755 mmHg 54%
    18:00 +8°C° 0 mm 3 mps 755 mmHg 63%
    19:00 +5°C° 0 mm 3 mps 755 mmHg 72%
    20:00 +4°C° 0 mm 3 mps 755 mmHg 76%
    21:00 +4°C° 0 mm 2 mps 755 mmHg 80%
    22:00 +3°C° 0 mm 2 mps 756 mmHg 83%
    23:00 +3°C° 0 mm 2 mps 756 mmHg 79%

    11 April, Saturday

    Time Temperature Precipitation Wind Pressure Humidity
    00:00 +2°C° 0 mm 2 mps 756 mmHg 74%
    01:00 +1°C° 0 mm 2 mps 756 mmHg 69%
    02:00 +1°C° 0 mm 2 mps 756 mmHg 69%
    03:00 -1°C° 0 mm 2 mps 756 mmHg 68%
    04:00 -1°C° 0 mm 2 mps 756 mmHg 68%
    05:00 +1°C° 0 mm 2 mps 756 mmHg 64%
    06:00 +1°C° 0 mm 3 mps 756 mmHg 61%
    07:00 +2°C° 0 mm 3 mps 756 mmHg 58%
    08:00 +3°C° 0 mm 3 mps 756 mmHg 53%
    09:00 +5°C° 0 mm 3 mps 755 mmHg 49%
    10:00 +7°C° 0 mm 3 mps 755 mmHg 44%
    11:00 +8°C° 0 mm 3 mps 755 mmHg 45%
    12:00 +9°C° 0 mm 3 mps 754 mmHg 45%
    13:00 +10°C° 0 mm 3 mps 754 mmHg 46%
    14:00 +10°C° 0 mm 3 mps 753 mmHg 47%
    15:00 +10°C° 0 mm 3 mps 752 mmHg 49%
    16:00 +10°C° 0 mm 3 mps 751 mmHg 51%
    17:00 +8°C° 0 mm 4 mps 751 mmHg 54%
    18:00 +7°C° 0 mm 4 mps 750 mmHg 58%
    19:00 +6°C° 0 mm 4 mps 750 mmHg 62%
    20:00 +6°C° 0 mm 5 mps 749 mmHg 61%
    21:00 +6°C° 0 mm 5 mps 749 mmHg 61%
    22:00 +6°C° 0 mm 5 mps 748 mmHg 60%
    23:00 +5°C° 0 mm 6 mps 747 mmHg 59%
    Show more